Epoch 2013 Aug. 16.0 TT = JDT 2456520.5 T 2013 Sept. 1.43207 TT MPC q 0.9286518 (2000.0) P Q z -0.0003383 Peri. 165.68341 +0.67661824 +0.63054834 +/-0.0000337 Node 144.24539 -0.72325397 +0.66602473 e 1.0003142 Incl. 40.60019 -0.13817182 -0.39852207 From 87 observations 2013 Apr. 13-June 9, mean residual 0".6.
m1 = 14.0 + 5 log d + 10.0 log r [ ,-77] ( - 2013 June 16) m1 = -5 + 5 log d + 40 log r(t + 300) [-77, ] (2013 June 16 - ) * Gray curve is: m1 = 14.0 + 5 log d + 10.0 log r